{"data":{"norad_id":68143,"intl_designator":"2026-049B","name":"STARLINK-36995","alt_names":[],"object_type":"PAYLOAD","status":"ACTIVE","operator":null,"country":"US","launch_date":"2026-03-13","launch_site_code":"AFWTR","launch_vehicle":null,"mission":null,"orbit_class":"UNKNOWN","rcs_meters":null,"size_class":null,"mass_kg":null,"dimensions":null,"purposes":["comms"],"wikipedia_slug":null,"has_3d_model":false,"image_url":null,"decayed_at":null,"tle_current":{"epoch":"2026-05-25T00:23:14.858016Z","epoch_age_seconds":67565,"freshness":"FRESH","line1":"1 68143U 26049B   26145.01614419  .00011458  00000+0  35668-3 0  9996","line2":"2 68143  97.2856 166.6605 0000761 105.1718 254.9608 15.33446581 11341","mean_motion":15.33446581,"eccentricity":7.61e-5,"inclination_deg":97.2856,"raan_deg":166.6605,"arg_perigee_deg":105.1718,"mean_anomaly_deg":254.9608,"bstar":0.00035668,"rev_number":1134,"period_min":93.906107838523,"perigee_km":465.01766683519,"apogee_km":466.05927424181,"semimajor_km":6843.6754705385,"source":"CELESTRAK","updated_at":"2026-05-25T13:38:21.846492Z"}}}